CAPE
1922 1497 1114 1241 764 960 1124 1103 1045 883 814 1050 1241 1264 925 996 1304 560 1133 730 960 1021
2222 2298 1813 1349 970 682 953 1198 894 482 762 867 1223 977 1196 1079 995 675 1084 1143 1447 1224
2679 2487 2006 1901 1389 844 1147 954 696 783 879 717 1041 1288 1128 775 795 274 752 863 748 1184
2621 2607 2364 2216 1560 1614 1168 1297 1166 1190 1004 767 1224 1245 1170 1118 678 1336 920 870 1145 1147
2679 2462 2420 2073 2205 2030 1349 1294 1276 1045 1198 1417 1547 1395 1797 877 807 944 684 1122 1168 723
2780 2607 2397 2333 2149 2162 1608 1116 1605 1342 1087 1345 1566 1224 1272 1344 780 1344 1167 1325 1202 1188
2712 2818 2629 2644 2323 2563 2100 1272 1024 1657 1711 1724 1875 1321 1729 1818 1631 1863 1654 1648 1630 1616
3074 3009 2958 2906 2686 2250 2718 2534 2026 1205 1567 1867 1834 1666 1784 1800 1739 1826 1813 1287 1668 1558
3410 3205 3216 3018 3256 2840 2643 2438 2380 2445 2267 1978 1935 1434 1075 1426 1620 1460 1797 1885 2134 1820
3606 3451 3399 3357 3285 3340 3059 3029 2692 2555 2343 2162 2027 1817 1253 922 1337 1596 1560 1660 1925 1331
3874 3685 3494 3473 3356 3365 3381 3141 3088 2900 2818 2508 2503 2280 1672 1296 1102 1405 1429 1297 1659 1707
3900 3813 3659 3540 3489 3523 3500 3415 3167 3216 2912 2609 2513 2239 1978 1388 1432 1343 1384 1503 1489 1395
3440 3672 3841 3629 3628 3522 3522 3219 3243 3160 3094 2856 2690 2592 1973 1497 1670 1653 1609 1694 1851 1656
3256 3242 3322 3435 3505 3550 3252 2700 2863 2722 2339 2135 2267 2485 2187 1886 1897 1864 1775 1747 1476 1745
CIN
-12 -23 -23 -23 -29 -16 -13 -11 -9 -10 -13 -12 -3 -6 -7 -5 -2 -12 -7 -10 -14 -29
-5 -0 -1 -23 -37 -45 -18 -3 -21 -42 -15 -6 -6 -20 -8 -4 -2 -6 -2 -1 -3 -11
-1 -2 -6 -2 -22 -43 -14 -10 -21 -23 -15 -17 -6 -4 -15 -12 -6 -17 -7 -3 -8 -9
-23 -5 -3 -1 -26 -17 -12 -13 -19 -15 -17 -18 -4 -8 -7 -13 -11 -3 -6 -9 -8 -17
-31 -27 -22 -15 -1 -21 -28 -14 -16 -15 -11 -2 -3 -7 -1 -14 -16 -6 -16 -20 -11 -34
-46 -41 -39 -41 -19 -22 -40 -55 -10 -19 -25 -15 -11 -14 -10 -10 -22 -7 -9 -10 -14 -23
-83 -60 -57 -33 -45 -10 -51 -80 -82 -13 -6 -7 -8 -21 -4 -2 -7 -2 -4 -5 -5 -6
-64 -47 -35 -25 -46 -41 -2 -19 -34 -59 -9 -2 -3 -5 -3 -3 -4 -2 -4 -15 -5 -11
-54 -43 -26 -20 -8 -34 -23 -20 -7 -1 -1 -1 -0 -5 -9 -3 -7 -7 -2 -3 -2 -9
-60 -53 -33 -12 -4 -4 -17 -8 -20 -16 -12 -10 -4 -2 -11 -19 -6 -3 -6 -4 -4 -13
-29 -40 -36 -24 -12 -6 -5 -10 -10 -12 -12 -23 -18 -15 -32 -33 -37 -7 -6 -8 -4 -3
-14 -15 -16 -14 -12 -2 -2 -1 -3 -1 -3 -12 -22 -31 -41 -60 -35 -35 -30 -14 -17 -33
-23 -4 -1 -3 -2 -4 -3 -2 -2 -3 -3 -6 -7 -15 -51 -75 -38 -37 -51 -44 -34 -47
-7 -7 -6 -6 -4 -3 -5 -14 -4 -4 -9 -10 -5 -1 -13 -28 -20 -33 -44 -57 -92 -75
Wind_Speed
15 10 9 5 5 5 7 6 12 6 21 20 13 20 25 20 15 16 9 14 16 21
17 17 11 8 9 15 17 12 2 20 29 24 18 12 20 17 16 20 19 14 12 12
15 16 19 7 9 9 15 18 19 3 9 8 9 4 9 23 17 9 14 11 12 13
14 14 14 14 11 8 13 8 6 12 12 11 11 11 4 4 21 20 11 16 17 16
13 13 12 13 10 8 11 10 6 4 3 7 5 5 3 9 17 18 11 13 11 16
11 11 13 12 13 7 8 10 2 4 6 5 8 13 12 10 14 21 20 18 18 18
13 12 12 9 11 7 7 9 11 5 9 10 4 5 8 11 6 10 17 19 18 20
15 13 11 10 9 9 5 4 4 8 10 10 11 8 7 6 5 8 9 12 25 22
10 12 12 11 8 8 6 5 1 2 3 3 5 8 18 8 6 6 6 10 16 20
6 8 9 10 10 6 6 4 3 2 3 6 9 13 30 11 7 10 12 13 13 16
8 7 6 7 9 9 6 5 3 2 4 6 8 8 7 15 21 23 27 29 23 19
15 11 9 8 7 6 5 4 3 4 4 6 10 11 8 9 14 18 22 22 20 13
16 16 15 13 11 11 10 6 5 4 5 8 12 13 11 10 15 18 19 18 10 13
18 19 20 18 17 15 13 13 12 14 17 21 18 18 17 16 19 21 23 21 19 16
Wind_Direction
164 164 168 278 206 173 176 189 293 245 266 267 282 282 274 295 315 318 353 337 330 309
165 167 160 159 171 179 183 173 35 268 227 262 272 288 285 297 305 295 307 328 340 341
158 164 175 137 154 166 174 180 178 147 201 255 179 214 294 275 295 310 313 331 326 332
151 154 161 166 156 157 170 163 148 162 163 167 172 178 202 271 287 300 308 309 312 322
151 152 150 161 154 145 163 167 171 269 211 168 183 198 223 294 292 300 309 315 323 317
157 156 159 154 161 149 151 166 263 184 190 207 280 285 291 293 295 291 295 301 305 308
168 166 166 157 156 143 148 157 174 172 176 182 217 232 281 292 290 297 297 297 302 302
172 171 168 165 162 163 148 145 155 170 180 183 187 200 215 261 261 294 295 299 290 299
176 176 177 175 166 166 166 169 203 275 266 233 209 200 199 211 244 248 274 297 300 301
208 190 185 179 178 179 175 171 182 216 270 283 287 289 272 235 251 286 295 298 300 304
266 253 233 202 190 183 181 192 207 251 275 287 294 280 258 287 289 287 284 283 295 303
283 277 262 255 251 242 232 230 227 278 284 293 301 295 281 282 288 291 290 292 295 292
285 284 277 275 274 274 276 274 279 285 283 296 304 301 294 285 290 291 293 294 274 232
286 286 284 281 279 279 278 281 286 297 307 303 301 302 299 294 291 290 291 293 295 292